Orange City, IA

12:29 PM CDT on March 29, 2017 (GMT -0500)
Orange City Municipal

Weather History for KORC - January, 2014

Change the Weather History Date:

Saturday, January 4, 2014

  Actual Average Record
Temperature  
Mean Temperature 19 °F -  
Max Temperature 37 °F 28 °F 51 °F (2012)
Min Temperature 1 °F 11 °F -16 °F (1999)
Degree Days  
Heating Degree Days 46    
Moisture  
Dew Point 8 °F    
Average Humidity 72    
Maximum Humidity 87    
Minimum Humidity 62    
Precipitation  
Precipitation 0.04 in - - ()
Sea Level Pressure  
Sea Level Pressure 29.95 in    
Wind  
Wind Speed 14 mph (NNW)    
Max Wind Speed 28 mph    
Max Gust Speed 34 mph    
Visibility 10 miles    
Events Snow    
Averages and records for this station are not official NWS values.
T = Trace of Precipitation, MM = Missing Value Source: NWS Daily Summary

Daily Weather History Graph

Daily Weather History Graph

Search for Another Location

Airport or City:

Trip Planner

Search our weather history database for the weather conditions in past years. The results will help you decide how hot, cold, wet, or windy it might be!

Date:

Astronomy

Jan. 04, 2014 Rise Set
Actual Time 7:55 AM CST 5:03 PM CST
Civil Twilight 7:23 AM CST 5:35 PM CST
Nautical Twilight 6:47 AM CST 6:10 PM CST
Astronomical Twilight 6:13 AM CST 6:45 PM CST
Moon 9:55 AM CST (1/4) 9:31 PM CST (1/4)
Length of Visible Light 10h 11m
Length of Day
9h 07m
Waxing Crescent, 15% of the Moon is Illuminated
Jan 4
Waxing Crescent
Jan 7
First Quarter
Jan 15
Full
Jan 23
Last Quarter
Jan 30
New

Hourly Weather History & Observations

Time (CST) Temp. Windchill Dew Point Humidity Pressure Visibility Wind Dir Wind Speed Gust Speed Precip Events Conditions
12:15 AM 33.8 °F 27.0 °F 28.4 °F 81% 29.51 in 10.0 mi SSW 8.1 mph - N/A   Overcast
12:35 AM 33.8 °F 29.6 °F 28.4 °F 81% 29.52 in 10.0 mi SW 4.6 mph - N/A   Overcast
12:55 AM 35.6 °F 29.9 °F 28.4 °F 75% 29.52 in 10.0 mi WSW 6.9 mph - N/A   Mostly Cloudy
1:15 AM 33.8 °F 27.7 °F 28.4 °F 81% 29.52 in 10.0 mi West 6.9 mph - N/A   Mostly Cloudy
1:35 AM 35.6 °F 27.1 °F 30.2 °F 81% 29.54 in 10.0 mi West 12.7 mph - N/A   Mostly Cloudy
1:55 AM 35.6 °F 28.0 °F 30.2 °F 81% 29.54 in 10.0 mi WSW 10.4 mph - N/A   Overcast
2:15 AM 33.8 °F 25.8 °F 30.2 °F 87% 29.55 in 10.0 mi WSW 10.4 mph - N/A   Scattered Clouds
2:35 AM 35.6 °F 27.5 °F 30.2 °F 81% 29.57 in 10.0 mi West 11.5 mph - N/A   Mostly Cloudy
2:55 AM 37.4 °F 27.8 °F 30.2 °F 75% 29.60 in 10.0 mi West 17.3 mph - N/A   Overcast
3:15 AM 37.4 °F 26.4 °F 30.2 °F 75% 29.61 in 10.0 mi WNW 23.0 mph 27.6 mph 0.01 in   Overcast
3:35 AM 37.4 °F 25.6 °F 30.2 °F 75% 29.62 in 10.0 mi WNW 26.5 mph 32.2 mph 0.03 in   Mostly Cloudy
3:55 AM 33.8 °F 20.8 °F 28.4 °F 81% 29.64 in 10.0 mi NW 26.5 mph 34.5 mph 0.04 in   Scattered Clouds
4:15 AM 32.0 °F 18.1 °F 26.6 °F 80% 29.66 in 10.0 mi NW 27.6 mph 34.5 mph N/A   Mostly Cloudy
4:35 AM 28.4 °F 14.4 °F 23.0 °F 80% 29.68 in 10.0 mi NNW 23.0 mph 34.5 mph N/A   Overcast
4:55 AM 24.8 °F 9.3 °F 17.6 °F 74% 29.73 in 10.0 mi NNW 24.2 mph 33.4 mph N/A   Overcast
5:15 AM 21.2 °F 4.9 °F 15.8 °F 80% 29.76 in 10.0 mi NNW 23.0 mph 29.9 mph N/A   Overcast
5:35 AM 19.4 °F 3.2 °F 12.2 °F 74% 29.79 in 10.0 mi NNW 20.7 mph 28.8 mph N/A   Overcast
5:55 AM 17.6 °F 1.7 °F 10.4 °F 73% 29.82 in 10.0 mi NNW 18.4 mph 26.5 mph N/A   Overcast
6:15 AM 17.6 °F 0.9 °F 10.4 °F 73% 29.81 in 10.0 mi NNW 20.7 mph 29.9 mph N/A   Overcast
6:35 AM 15.8 °F -1.5 °F 8.6 °F 73% 29.83 in 10.0 mi NNW 20.7 mph 33.4 mph N/A   Overcast
6:55 AM 14.0 °F -3.0 °F 6.8 °F 73% 29.85 in 10.0 mi NNW 18.4 mph 26.5 mph N/A   Mostly Cloudy
7:15 AM 12.2 °F -3.1 °F 6.8 °F 79% 29.89 in 7.0 mi NNW 13.8 mph 28.8 mph N/A Snow Light Snow
7:35 AM 12.2 °F -4.3 °F 6.8 °F 79% 29.90 in 10.0 mi NNW 16.1 mph 26.5 mph N/A   Overcast
7:55 AM 12.2 °F -6.7 °F 6.8 °F 79% 29.89 in 10.0 mi North 21.9 mph 27.6 mph N/A Snow Light Snow
8:15 AM 12.2 °F -4.3 °F 5.0 °F 73% 29.90 in 10.0 mi NNW 16.1 mph 29.9 mph N/A   Overcast
8:35 AM 12.2 °F -5.8 °F 3.2 °F 67% 29.91 in 10.0 mi North 19.6 mph 26.5 mph N/A   Mostly Cloudy
8:55 AM 10.4 °F -6.6 °F 3.2 °F 73% 29.95 in 10.0 mi North 16.1 mph 24.2 mph N/A   Scattered Clouds
9:15 AM 12.2 °F -4.3 °F 3.2 °F 67% 29.98 in 10.0 mi NNW 16.1 mph 20.7 mph N/A   Scattered Clouds
9:35 AM 10.4 °F -6.6 °F 3.2 °F 73% 29.96 in 10.0 mi North 16.1 mph 23.0 mph N/A   Scattered Clouds
9:55 AM 10.4 °F -7.7 °F 3.2 °F 73% 29.96 in 10.0 mi North 18.4 mph 24.2 mph N/A   Clear
10:15 AM 12.2 °F -6.7 °F 3.2 °F 67% 29.98 in 10.0 mi North 21.9 mph 27.6 mph N/A   Clear
10:35 AM 14.0 °F -4.7 °F 3.2 °F 62% 29.99 in 10.0 mi North 23.0 mph 28.8 mph N/A   Clear
10:55 AM 12.2 °F -7.5 °F 3.2 °F 67% 29.99 in 10.0 mi North 24.2 mph 29.9 mph N/A   Clear
11:15 AM 12.2 °F -6.7 °F 3.2 °F 67% 29.99 in 10.0 mi North 21.9 mph 27.6 mph N/A   Clear
11:35 AM 12.2 °F -4.3 °F 3.2 °F 67% 29.99 in 10.0 mi North 16.1 mph 27.6 mph N/A   Clear
11:55 AM 12.2 °F -5.3 °F 3.2 °F 67% 30.00 in 10.0 mi North 18.4 mph 27.6 mph N/A   Clear
12:15 PM 12.2 °F -3.1 °F 3.2 °F 67% 30.03 in 10.0 mi NNW 13.8 mph 27.6 mph N/A   Scattered Clouds
12:35 PM 12.2 °F -4.8 °F 3.2 °F 67% 30.03 in 10.0 mi NNW 17.3 mph 26.5 mph N/A   Clear
12:55 PM 12.2 °F -3.7 °F 3.2 °F 67% 30.02 in 10.0 mi North 15.0 mph 24.2 mph N/A   Clear
1:15 PM 14.0 °F -1.4 °F 3.2 °F 62% 30.02 in 10.0 mi North 15.0 mph 26.5 mph N/A   Clear
1:35 PM 15.8 °F 0.9 °F 5.0 °F 62% 30.01 in 10.0 mi NNW 15.0 mph 24.2 mph N/A   Clear
1:55 PM 15.8 °F -1.1 °F 5.0 °F 62% 30.01 in 10.0 mi North 19.6 mph 24.2 mph N/A   Scattered Clouds
2:15 PM 15.8 °F 0.3 °F 5.0 °F 62% 30.02 in 10.0 mi NNW 16.1 mph 24.2 mph N/A   Scattered Clouds
2:35 PM 15.8 °F 2.1 °F 6.8 °F 68% 30.06 in 10.0 mi NNW 12.7 mph 21.9 mph N/A   Mostly Cloudy
2:55 PM 15.8 °F 2.1 °F 6.8 °F 68% 30.07 in 10.0 mi NNW 12.7 mph - N/A   Mostly Cloudy
3:15 PM 15.8 °F 0.3 °F 6.8 °F 68% 30.07 in 10.0 mi North 16.1 mph 21.9 mph N/A   Mostly Cloudy
3:35 PM 15.8 °F 2.7 °F 6.8 °F 68% 30.07 in 10.0 mi North 11.5 mph 18.4 mph N/A Snow Light Snow
3:55 PM 15.8 °F 2.1 °F 6.8 °F 68% 30.07 in 10.0 mi North 12.7 mph - N/A   Mostly Cloudy
4:15 PM 15.8 °F 2.7 °F 6.8 °F 68% 30.08 in 10.0 mi North 11.5 mph - N/A   Mostly Cloudy
4:35 PM 15.8 °F 2.1 °F 6.8 °F 68% 30.09 in 10.0 mi NNW 12.7 mph 20.7 mph N/A   Mostly Cloudy
4:55 PM 12.2 °F -1.8 °F 5.0 °F 73% 30.10 in 10.0 mi NNW 11.5 mph 18.4 mph N/A   Scattered Clouds
5:15 PM 10.4 °F -4.1 °F 3.2 °F 73% 30.12 in 10.0 mi NNW 11.5 mph 17.3 mph N/A   Scattered Clouds
5:35 PM 10.4 °F -4.8 °F 3.2 °F 73% 30.13 in 10.0 mi NNW 12.7 mph 16.1 mph N/A   Clear
5:55 PM 10.4 °F -1.5 °F 3.2 °F 73% 30.14 in 10.0 mi North 8.1 mph - N/A   Clear
6:15 PM 10.4 °F -2.4 °F 3.2 °F 73% 30.14 in 10.0 mi NNW 9.2 mph - N/A   Clear
6:35 PM 8.6 °F -7.0 °F 1.4 °F 73% 30.15 in 10.0 mi NNW 12.7 mph - N/A   Clear
6:55 PM 8.6 °F -5.5 °F 1.4 °F 73% 30.16 in 10.0 mi NNW 10.4 mph - N/A   Clear
7:15 PM 8.6 °F -6.3 °F 1.4 °F 73% 30.17 in 10.0 mi NNW 11.5 mph 18.4 mph N/A   Clear
7:35 PM 6.8 °F -10.0 °F -0.4 °F 72% 30.18 in 10.0 mi NNW 13.8 mph 19.6 mph N/A   Clear
7:55 PM 6.8 °F -9.3 °F -0.4 °F 72% 30.19 in 10.0 mi North 12.7 mph 18.4 mph N/A   Clear
8:15 PM 6.8 °F -7.8 °F -0.4 °F 72% 30.19 in 10.0 mi North 10.4 mph - N/A   Clear
8:35 PM 3.2 °F -13.9 °F -2.2 °F 78% 30.20 in 10.0 mi NNW 12.7 mph - N/A   Clear
8:55 PM 5.0 °F -11.6 °F -2.2 °F 72% 30.22 in 10.0 mi North 12.7 mph 17.3 mph N/A   Clear
9:15 PM 3.2 °F -14.6 °F -2.2 °F 78% 30.22 in 10.0 mi NNW 13.8 mph 17.3 mph N/A   Clear
9:35 PM 3.2 °F -14.6 °F -4.0 °F 72% 30.21 in 10.0 mi North 13.8 mph - N/A   Clear
9:55 PM 3.2 °F -11.3 °F -4.0 °F 72% 30.22 in 10.0 mi North 9.2 mph - N/A   Clear
10:15 PM 3.2 °F -13.1 °F -5.8 °F 66% 30.23 in 10.0 mi North 11.5 mph - N/A   Clear
10:35 PM 3.2 °F -14.6 °F -5.8 °F 66% 30.23 in 10.0 mi North 13.8 mph 18.4 mph N/A   Clear
10:55 PM 3.2 °F -13.9 °F -5.8 °F 66% 30.23 in 10.0 mi NNW 12.7 mph 18.4 mph N/A   Clear
11:15 PM 1.4 °F -16.1 °F -5.8 °F 72% 30.24 in 10.0 mi North 12.7 mph 18.4 mph N/A   Clear
11:35 PM 1.4 °F -14.5 °F -5.8 °F 72% 30.23 in 10.0 mi North 10.4 mph 16.1 mph N/A   Clear
11:55 PM 1.4 °F -16.9 °F -7.6 °F 66% 30.23 in 10.0 mi North 13.8 mph 17.3 mph N/A   Clear